MEASAT-3A

Last updated on Thu Oct 30 2025 00:02:48 GMT+0000 (Coordinated Universal Time)

1 35362U 09032A 25302.54504155 -.00000100 00000+0 00000+0 0 9994 2 35362 0.0419 58.0686 0002828 196.0283 140.2774 1.00271873 5714
UTC large
Height (km)
Speed (km/s)
/
Latitude / Longitude
Inclination (degrees)
Orbital Period (minutes)
Azimuth
Elevation
Range (km)
Doppler Factor

Next 0 passes for location: London (51.5072 / 0.1276)

Sorry there are no passes over London.